GFSSW_prec_precacc12_027.txt.gz
Total_Precipitation_Accumulation
0.00 0.00 0.00 0.00 0.00 0.00 0.00 0.00 0.00 0.02 0.09 0.08 0.09 0.09 0.08 0.06 0.04 0.02 0.01 0.00 0.00 0.00 0.00 0.00 0.00 0.00 0.00 0.00 0.00 0.00 0.00 0.00 0.00 0.00 0.00 0.00 0.00 0.00 0.00 0.00 0.00 0.00 0.00 0.00 0.00
0.00 0.00 0.00 0.00 0.00 0.00 0.00 0.00 0.00 0.00 0.00 0.01 0.03 0.06 0.08 0.06 0.02 0.03 0.00 0.00 0.00 0.00 0.00 0.00 0.01 0.02 0.01 0.00 0.00 0.00 0.00 0.00 0.00 0.00 0.00 0.00 0.00 0.00 0.00 0.00 0.00 0.00 0.00 0.00 0.00
0.00 0.00 0.00 0.00 0.00 0.00 0.00 0.00 0.00 0.00 0.01 0.02 0.02 0.07 0.12 0.06 0.02 0.01 0.00 0.00 0.00 0.00 0.01 0.01 0.01 0.06 0.04 0.01 0.00 0.00 0.00 0.00 0.00 0.00 0.00 0.00 0.00 0.00 0.00 0.00 0.00 0.00 0.00 0.00 0.00
0.00 0.00 0.00 0.00 0.00 0.00 0.00 0.01 0.01 0.01 0.02 0.03 0.06 0.08 0.14 0.12 0.02 0.00 0.00 0.00 0.00 0.00 0.01 0.04 0.02 0.04 0.05 0.02 0.00 0.00 0.00 0.00 0.00 0.00 0.00 0.00 0.00 0.00 0.00 0.00 0.00 0.00 0.00 0.00 0.00
0.00 0.00 0.00 0.00 0.00 0.00 0.00 0.00 0.01 0.01 0.02 0.03 0.08 0.14 0.14 0.11 0.02 0.00 0.00 0.00 0.00 0.00 0.03 0.04 0.04 0.05 0.04 0.01 0.00 0.00 0.00 0.00 0.00 0.00 0.00 0.00 0.00 0.00 0.00 0.00 0.00 0.00 0.00 0.00 0.00
0.00 0.00 0.00 0.00 0.00 0.00 0.00 0.00 0.01 0.04 0.07 0.07 0.16 0.18 0.07 0.03 0.00 0.00 0.01 0.00 0.00 0.00 0.03 0.11 0.04 0.04 0.05 0.03 0.00 0.00 0.00 0.00 0.00 0.00 0.00 0.00 0.00 0.00 0.00 0.00 0.00 0.00 0.00 0.00 0.00
0.00 0.00 0.00 0.01 0.00 0.00 0.00 0.00 0.01 0.04 0.05 0.08 0.17 0.08 0.04 0.01 0.00 0.00 0.00 0.00 0.00 0.00 0.04 0.05 0.07 0.08 0.06 0.05 0.00 0.00 0.00 0.00 0.00 0.00 0.00 0.00 0.00 0.00 0.00 0.00 0.00 0.00 0.00 0.00 0.00
0.01 0.01 0.01 0.01 0.01 0.01 0.00 0.00 0.00 0.02 0.04 0.12 0.23 0.11 0.03 0.00 0.00 0.00 0.00 0.00 0.00 0.00 0.03 0.15 0.16 0.13 0.09 0.08 0.02 0.02 0.02 0.01 0.00 0.00 0.00 0.00 0.00 0.00 0.00 0.00 0.00 0.00 0.00 0.00 0.00
0.01 0.01 0.01 0.02 0.03 0.02 0.01 0.03 0.02 0.01 0.09 0.16 0.14 0.09 0.02 0.00 0.00 0.00 0.00 0.00 0.01 0.01 0.03 0.21 0.29 0.24 0.14 0.09 0.10 0.03 0.02 0.01 0.00 0.00 0.00 0.00 0.00 0.00 0.00 0.00 0.00 0.00 0.00 0.00 0.00
0.00 0.01 0.02 0.02 0.05 0.05 0.05 0.09 0.08 0.07 0.08 0.11 0.13 0.10 0.00 0.00 0.00 0.00 0.00 0.00 0.03 0.12 0.18 0.25 0.30 0.45 0.22 0.11 0.11 0.01 0.01 0.00 0.00 0.00 0.00 0.00 0.00 0.00 0.00 0.00 0.00 0.00 0.00 0.00 0.00
0.00 0.01 0.02 0.05 0.13 0.24 0.19 0.07 0.02 0.03 0.05 0.01 0.03 0.01 0.01 0.01 0.00 0.00 0.00 0.00 0.06 0.20 0.28 0.46 0.41 0.48 0.26 0.07 0.01 0.01 0.00 0.00 0.00 0.00 0.00 0.00 0.00 0.00 0.00 0.00 0.00 0.00 0.00 0.00 0.00
0.02 0.05 0.08 0.20 0.30 0.54 0.56 0.05 0.00 0.01 0.01 0.00 0.01 0.00 0.02 0.01 0.03 0.02 0.00 0.01 0.08 0.17 0.25 0.72 0.51 0.15 0.21 0.08 0.02 0.01 0.00 0.00 0.00 0.00 0.00 0.00 0.00 0.00 0.00 0.00 0.00 0.00 0.00 0.00 0.00
0.02 0.09 0.19 0.39 0.51 0.64 0.50 0.15 0.06 0.07 0.21 0.04 0.00 0.00 0.00 0.02 0.04 0.10 0.01 0.02 0.04 0.15 0.27 0.52 0.38 0.11 0.32 0.18 0.04 0.02 0.00 0.00 0.00 0.00 0.00 0.00 0.00 0.00 0.00 0.00 0.00 0.00 0.00 0.00 0.00
0.02 0.10 0.25 0.50 0.70 0.48 0.41 0.30 0.23 0.26 0.53 0.06 0.00 0.00 0.00 0.07 0.05 0.06 0.01 0.04 0.07 0.16 0.16 0.32 0.35 0.18 0.34 0.29 0.05 0.01 0.00 0.00 0.00 0.00 0.00 0.00 0.00 0.00 0.00 0.00 0.00 0.00 0.00 0.00 0.00
0.01 0.08 0.24 0.54 0.76 0.53 0.31 0.34 0.40 0.51 0.55 0.04 0.00 0.00 0.02 0.03 0.06 0.04 0.01 0.06 0.08 0.12 0.29 0.34 0.40 0.33 0.31 0.32 0.03 0.01 0.00 0.00 0.00 0.00 0.00 0.00 0.00 0.00 0.00 0.00 0.00 0.00 0.00 0.00 0.00
0.02 0.02 0.13 0.38 0.64 0.50 0.42 0.44 0.61 0.64 0.28 0.06 0.04 0.03 0.05 0.02 0.11 0.25 0.17 0.17 0.18 0.15 0.14 0.15 0.26 0.38 0.15 0.12 0.03 0.01 0.00 0.00 0.00 0.00 0.00 0.00 0.00 0.00 0.00 0.00 0.00 0.00 0.00 0.00 0.00
0.04 0.03 0.04 0.19 0.77 0.74 0.58 0.72 0.70 0.32 0.13 0.15 0.06 0.08 0.05 0.01 0.08 0.15 0.21 0.28 0.55 0.42 0.23 0.38 0.41 0.66 0.12 0.16 0.16 0.02 0.02 0.07 0.05 0.01 0.00 0.00 0.00 0.00 0.00 0.00 0.00 0.00 0.00 0.00 0.00
0.06 0.06 0.03 0.03 0.56 1.07 0.85 0.83 0.46 0.15 0.18 0.33 0.11 0.12 0.10 0.02 0.07 0.09 0.14 0.21 0.33 0.11 0.09 0.37 0.37 0.59 0.22 0.12 0.24 0.04 0.03 0.01 0.02 0.00 0.00 0.00 0.00 0.00 0.00 0.00 0.00 0.00 0.00 0.00 0.00
0.05 0.03 0.03 0.03 0.38 0.92 0.91 0.84 0.30 0.29 0.29 0.32 0.31 0.24 0.12 0.05 0.08 0.10 0.10 0.15 0.17 0.09 0.10 0.15 0.23 0.32 0.20 0.02 0.08 0.09 0.04 0.00 0.00 0.00 0.00 0.00 0.00 0.00 0.00 0.00 0.00 0.00 0.00 0.00 0.00
0.02 0.02 0.01 0.04 0.46 0.86 0.95 0.71 0.46 0.47 0.50 0.28 0.27 0.18 0.05 0.09 0.09 0.07 0.09 0.09 0.11 0.01 0.03 0.07 0.12 0.30 0.26 0.05 0.11 0.09 0.01 0.01 0.00 0.00 0.00 0.00 0.00 0.00 0.00 0.00 0.00 0.00 0.00 0.00 0.00
0.02 0.03 0.00 0.06 0.61 0.91 0.75 0.62 0.62 0.52 0.61 0.39 0.18 0.10 0.05 0.12 0.07 0.05 0.09 0.05 0.02 0.00 0.02 0.09 0.13 0.30 0.23 0.11 0.06 0.07 0.04 0.00 0.00 0.00 0.00 0.00 0.00 0.00 0.00 0.00 0.00 0.00 0.00 0.00 0.00
0.01 0.02 0.03 0.16 0.55 0.52 0.49 0.63 0.62 0.60 0.69 0.57 0.23 0.05 0.02 0.05 0.07 0.09 0.04 0.01 0.00 0.00 0.01 0.03 0.03 0.13 0.11 0.02 0.01 0.00 0.00 0.00 0.00 0.00 0.00 0.00 0.00 0.00 0.00 0.00 0.00 0.00 0.00 0.00 0.00
0.01 0.04 0.22 0.12 0.18 0.35 0.49 0.67 0.72 0.65 0.81 0.59 0.29 0.04 0.00 0.00 0.06 0.06 0.00 0.00 0.00 0.00 0.00 0.00 0.00 0.05 0.08 0.05 0.02 0.01 0.00 0.00 0.00 0.00 0.00 0.00 0.00 0.00 0.00 0.00 0.00 0.00 0.00 0.00 0.00
0.02 0.03 0.20 0.20 0.04 0.22 0.58 0.69 0.68 0.56 0.62 0.33 0.27 0.05 0.00 0.01 0.01 0.01 0.01 0.00 0.00 0.00 0.00 0.00 0.00 0.00 0.01 0.02 0.00 0.00 0.00 0.00 0.00 0.00 0.00 0.00 0.00 0.00 0.00 0.00 0.00 0.00 0.00 0.00 0.00
0.02 0.01 0.01 0.04 0.01 0.04 0.34 0.51 0.62 0.69 0.45 0.38 0.24 0.04 0.00 0.01 0.01 0.00 0.00 0.00 0.00 0.00 0.00 0.00 0.00 0.00 0.00 0.00 0.00 0.00 0.00 0.00 0.00 0.00 0.00 0.00 0.00 0.00 0.00 0.00 0.00 0.00 0.00 0.00 0.00
0.02 0.00 0.00 0.00 0.00 0.02 0.24 0.40 0.53 0.36 0.19 0.20 0.11 0.01 0.00 0.00 0.00 0.00 0.00 0.00 0.00 0.00 0.00 0.00 0.00 0.00 0.00 0.00 0.00 0.00 0.00 0.00 0.00 0.00 0.00 0.00 0.00 0.00 0.00 0.00 0.00 0.00 0.00 0.00 0.00
0.01 0.00 0.00 0.00 0.00 0.04 0.08 0.25 0.36 0.17 0.10 0.06 0.06 0.01 0.01 0.01 0.00 0.00 0.00 0.00 0.00 0.00 0.00 0.00 0.00 0.00 0.00 0.00 0.00 0.00 0.00 0.00 0.00 0.00 0.00 0.00 0.00 0.00 0.00 0.00 0.00 0.00 0.00 0.00 0.00

GFSSW_prec_precacc12_033.txt.gz
Total_Precipitation_Accumulation
0.00 0.00 0.00 0.00 0.00 0.00 0.00 0.00 0.00 0.01 0.08 0.12 0.11 0.09 0.06 0.05 0.04 0.01 0.00 0.00 0.00 0.00 0.00 0.00 0.00 0.00 0.00 0.00 0.00 0.00 0.00 0.00 0.00 0.00 0.00 0.00 0.00 0.00 0.00 0.00 0.00 0.00 0.00 0.00 0.00
0.00 0.00 0.00 0.00 0.00 0.00 0.00 0.00 0.00 0.00 0.00 0.00 0.02 0.04 0.03 0.03 0.02 0.03 0.00 0.00 0.00 0.00 0.00 0.00 0.01 0.02 0.01 0.00 0.00 0.00 0.00 0.00 0.00 0.00 0.00 0.00 0.00 0.00 0.00 0.00 0.00 0.00 0.00 0.00 0.00
0.00 0.00 0.00 0.00 0.00 0.00 0.00 0.00 0.00 0.00 0.00 0.00 0.00 0.00 0.01 0.01 0.01 0.01 0.00 0.00 0.00 0.00 0.00 0.00 0.01 0.06 0.04 0.01 0.00 0.00 0.00 0.00 0.00 0.00 0.00 0.00 0.00 0.00 0.00 0.00 0.00 0.00 0.00 0.00 0.00
0.00 0.00 0.00 0.00 0.00 0.00 0.00 0.00 0.00 0.01 0.00 0.00 0.00 0.00 0.01 0.01 0.00 0.00 0.00 0.00 0.00 0.00 0.00 0.00 0.01 0.04 0.05 0.02 0.00 0.00 0.00 0.00 0.00 0.00 0.00 0.00 0.00 0.00 0.00 0.00 0.00 0.00 0.00 0.00 0.00
0.00 0.00 0.00 0.00 0.00 0.00 0.00 0.00 0.00 0.01 0.01 0.00 0.00 0.01 0.01 0.02 0.01 0.00 0.00 0.00 0.00 0.00 0.00 0.00 0.03 0.05 0.04 0.01 0.01 0.00 0.00 0.00 0.00 0.00 0.00 0.00 0.00 0.00 0.00 0.00 0.00 0.00 0.00 0.00 0.00
0.00 0.00 0.00 0.00 0.00 0.00 0.00 0.00 0.00 0.00 0.01 0.01 0.03 0.03 0.01 0.01 0.00 0.00 0.01 0.00 0.00 0.00 0.01 0.00 0.03 0.04 0.06 0.03 0.01 0.00 0.00 0.00 0.00 0.00 0.00 0.00 0.00 0.00 0.00 0.00 0.00 0.00 0.00 0.00 0.00
0.00 0.00 0.00 0.00 0.00 0.00 0.00 0.00 0.00 0.00 0.00 0.00 0.03 0.02 0.03 0.00 0.00 0.00 0.00 0.00 0.00 0.00 0.01 0.01 0.05 0.08 0.07 0.06 0.00 0.00 0.01 0.01 0.00 0.00 0.00 0.00 0.00 0.00 0.00 0.00 0.00 0.00 0.00 0.00 0.00
0.00 0.00 0.01 0.01 0.01 0.01 0.00 0.00 0.00 0.00 0.00 0.00 0.02 0.03 0.03 0.00 0.00 0.00 0.00 0.00 0.00 0.00 0.00 0.00 0.06 0.13 0.10 0.10 0.03 0.04 0.06 0.02 0.00 0.00 0.00 0.00 0.00 0.00 0.00 0.00 0.00 0.00 0.00 0.00 0.00
0.00 0.00 0.01 0.01 0.02 0.02 0.01 0.01 0.02 0.01 0.00 0.00 0.01 0.04 0.01 0.00 0.00 0.00 0.00 0.00 0.00 0.01 0.01 0.00 0.09 0.23 0.16 0.12 0.15 0.06 0.05 0.01 0.00 0.00 0.00 0.00 0.00 0.00 0.00 0.00 0.00 0.00 0.00 0.00 0.00
0.01 0.00 0.00 0.00 0.01 0.02 0.03 0.05 0.05 0.07 0.04 0.02 0.03 0.04 0.00 0.00 0.00 0.00 0.00 0.00 0.00 0.10 0.16 0.11 0.16 0.44 0.25 0.19 0.18 0.05 0.01 0.00 0.00 0.00 0.00 0.00 0.00 0.00 0.00 0.00 0.00 0.00 0.00 0.00 0.00
0.03 0.01 0.00 0.01 0.01 0.03 0.13 0.05 0.02 0.02 0.04 0.01 0.01 0.00 0.00 0.00 0.00 0.00 0.00 0.00 0.01 0.17 0.25 0.26 0.28 0.43 0.25 0.14 0.05 0.03 0.02 0.01 0.00 0.00 0.00 0.00 0.00 0.00 0.00 0.00 0.00 0.00 0.00 0.00 0.00
0.04 0.02 0.01 0.02 0.03 0.06 0.17 0.04 0.00 0.00 0.02 0.00 0.00 0.00 0.00 0.00 0.01 0.02 0.00 0.00 0.03 0.16 0.17 0.38 0.48 0.16 0.22 0.15 0.14 0.09 0.10 0.03 0.01 0.01 0.01 0.00 0.00 0.00 0.00 0.00 0.00 0.00 0.00 0.00 0.00
0.06 0.03 0.02 0.02 0.06 0.13 0.13 0.04 0.01 0.06 0.29 0.09 0.00 0.00 0.00 0.01 0.03 0.08 0.01 0.00 0.02 0.14 0.22 0.29 0.21 0.16 0.37 0.27 0.24 0.18 0.13 0.11 0.02 0.01 0.03 0.01 0.00 0.00 0.00 0.00 0.00 0.00 0.00 0.00 0.00
0.08 0.05 0.03 0.03 0.04 0.05 0.11 0.14 0.14 0.23 0.60 0.08 0.00 0.00 0.01 0.06 0.04 0.02 0.00 0.01 0.04 0.16 0.18 0.15 0.16 0.22 0.45 0.53 0.34 0.32 0.11 0.08 0.12 0.05 0.03 0.01 0.00 0.00 0.00 0.00 0.00 0.00 0.00 0.00 0.00
0.08 0.08 0.05 0.00 0.03 0.11 0.13 0.17 0.25 0.41 0.38 0.01 0.00 0.00 0.00 0.03 0.05 0.02 0.00 0.03 0.05 0.16 0.34 0.23 0.20 0.28 0.39 0.52 0.39 0.39 0.10 0.08 0.13 0.13 0.08 0.03 0.01 0.00 0.00 0.00 0.00 0.00 0.00 0.00 0.00
0.10 0.13 0.08 0.05 0.03 0.06 0.12 0.16 0.27 0.39 0.17 0.01 0.02 0.02 0.04 0.02 0.06 0.18 0.08 0.06 0.13 0.25 0.23 0.09 0.16 0.36 0.23 0.37 0.40 0.28 0.24 0.23 0.24 0.30 0.28 0.06 0.01 0.00 0.00 0.00 0.00 0.00 0.00 0.00 0.00
0.13 0.15 0.06 0.00 0.02 0.04 0.13 0.27 0.36 0.19 0.03 0.07 0.05 0.08 0.07 0.02 0.02 0.09 0.11 0.06 0.28 0.39 0.32 0.30 0.37 0.66 0.26 0.65 0.66 0.71 0.65 0.69 0.63 0.52 0.29 0.04 0.00 0.00 0.00 0.00 0.00 0.00 0.00 0.00 0.00
0.19 0.22 0.12 0.03 0.04 0.05 0.22 0.38 0.26 0.05 0.06 0.16 0.16 0.16 0.14 0.03 0.02 0.04 0.09 0.09 0.12 0.11 0.15 0.34 0.31 0.57 0.31 0.64 0.90 0.73 0.67 0.45 0.42 0.24 0.08 0.02 0.00 0.00 0.00 0.00 0.00 0.00 0.00 0.00 0.00
0.24 0.24 0.29 0.12 0.10 0.09 0.24 0.35 0.11 0.13 0.16 0.22 0.39 0.32 0.19 0.05 0.02 0.05 0.04 0.03 0.05 0.09 0.23 0.24 0.27 0.38 0.29 0.48 0.67 0.68 0.48 0.24 0.21 0.04 0.01 0.00 0.00 0.00 0.00 0.00 0.00 0.00 0.00 0.00 0.00
0.32 0.30 0.22 0.14 0.19 0.32 0.43 0.22 0.14 0.24 0.29 0.28 0.27 0.17 0.10 0.05 0.08 0.04 0.02 0.00 0.01 0.01 0.09 0.18 0.25 0.42 0.42 0.43 0.68 0.45 0.32 0.26 0.22 0.04 0.00 0.00 0.00 0.00 0.00 0.00 0.00 0.00 0.00 0.00 0.00
0.16 0.35 0.25 0.17 0.52 0.68 0.34 0.14 0.20 0.25 0.46 0.41 0.27 0.23 0.14 0.06 0.02 0.03 0.01 0.00 0.00 0.00 0.05 0.20 0.33 0.50 0.54 0.39 0.47 0.51 0.41 0.18 0.05 0.01 0.01 0.00 0.00 0.00 0.00 0.00 0.00 0.00 0.00 0.00 0.00
0.15 0.24 0.23 0.25 0.70 0.40 0.09 0.12 0.28 0.32 0.48 0.50 0.38 0.24 0.14 0.05 0.02 0.02 0.00 0.00 0.00 0.00 0.03 0.12 0.33 0.51 0.43 0.14 0.14 0.25 0.14 0.05 0.02 0.01 0.02 0.00 0.00 0.00 0.00 0.00 0.00 0.00 0.00 0.00 0.00
0.15 0.22 0.57 0.21 0.23 0.12 0.06 0.21 0.47 0.41 0.57 0.58 0.39 0.21 0.11 0.07 0.03 0.00 0.00 0.00 0.00 0.00 0.01 0.05 0.27 0.41 0.42 0.19 0.16 0.31 0.06 0.03 0.03 0.02 0.02 0.00 0.00 0.00 0.00 0.00 0.00 0.00 0.00 0.00 0.00
0.14 0.19 0.63 0.55 0.11 0.16 0.34 0.41 0.53 0.49 0.69 0.62 0.47 0.23 0.12 0.05 0.01 0.00 0.00 0.00 0.00 0.00 0.01 0.08 0.16 0.40 0.38 0.22 0.06 0.07 0.01 0.00 0.02 0.02 0.01 0.00 0.00 0.00 0.00 0.00 0.00 0.00 0.00 0.00 0.00
0.13 0.11 0.09 0.14 0.05 0.03 0.29 0.42 0.58 0.78 0.63 0.67 0.47 0.15 0.05 0.02 0.01 0.00 0.00 0.00 0.00 0.00 0.00 0.17 0.16 0.30 0.25 0.12 0.00 0.00 0.00 0.00 0.00 0.01 0.01 0.00 0.00 0.00 0.00 0.00 0.00 0.00 0.00 0.00 0.00
0.11 0.05 0.03 0.01 0.00 0.02 0.20 0.34 0.50 0.58 0.55 0.46 0.27 0.06 0.03 0.01 0.00 0.00 0.00 0.00 0.00 0.00 0.00 0.02 0.09 0.07 0.07 0.07 0.00 0.00 0.00 0.00 0.00 0.00 0.00 0.00 0.00 0.00 0.00 0.00 0.00 0.00 0.00 0.00 0.00
0.08 0.03 0.02 0.02 0.02 0.07 0.09 0.19 0.37 0.44 0.34 0.16 0.13 0.07 0.02 0.01 0.00 0.00 0.00 0.00 0.00 0.00 0.00 0.00 0.02 0.05 0.01 0.03 0.01 0.00 0.00 0.00 0.00 0.00 0.00 0.00 0.00 0.00 0.00 0.00 0.00 0.00 0.00 0.00 0.00

GFSSW_prec_precacc12_036.txt.gz
Total_Precipitation_Accumulation
0.00 0.00 0.00 0.00 0.00 0.00 0.00 0.00 0.00 0.00 0.06 0.10 0.09 0.09 0.05 0.03 0.03 0.01 0.00 0.00 0.00 0.00 0.00 0.00 0.00 0.00 0.00 0.00 0.00 0.00 0.00 0.00 0.00 0.00 0.00 0.00 0.00 0.00 0.00 0.00 0.00 0.00 0.00 0.00 0.00
0.00 0.00 0.00 0.00 0.00 0.00 0.00 0.00 0.00 0.00 0.00 0.00 0.02 0.04 0.04 0.02 0.01 0.03 0.00 0.00 0.00 0.00 0.00 0.00 0.00 0.02 0.01 0.00 0.00 0.00 0.00 0.00 0.00 0.00 0.00 0.00 0.00 0.00 0.00 0.00 0.00 0.00 0.00 0.00 0.00
0.00 0.00 0.00 0.00 0.00 0.00 0.00 0.00 0.00 0.00 0.00 0.00 0.00 0.00 0.01 0.02 0.01 0.00 0.00 0.00 0.00 0.00 0.00 0.00 0.00 0.04 0.04 0.01 0.00 0.00 0.00 0.00 0.00 0.00 0.00 0.00 0.00 0.00 0.00 0.00 0.00 0.00 0.00 0.00 0.00
0.00 0.00 0.00 0.00 0.00 0.00 0.00 0.00 0.00 0.00 0.00 0.00 0.00 0.00 0.00 0.00 0.00 0.00 0.00 0.00 0.00 0.01 0.00 0.00 0.00 0.02 0.04 0.02 0.00 0.00 0.00 0.00 0.00 0.00 0.00 0.00 0.00 0.00 0.00 0.00 0.00 0.00 0.00 0.00 0.00
0.00 0.00 0.00 0.00 0.00 0.00 0.00 0.00 0.00 0.00 0.00 0.00 0.00 0.01 0.00 0.01 0.00 0.00 0.00 0.00 0.00 0.00 0.00 0.00 0.00 0.02 0.03 0.01 0.01 0.00 0.00 0.00 0.00 0.00 0.00 0.00 0.00 0.00 0.00 0.00 0.00 0.00 0.00 0.00 0.00
0.00 0.00 0.00 0.00 0.00 0.00 0.00 0.00 0.00 0.00 0.00 0.00 0.01 0.01 0.00 0.00 0.00 0.00 0.00 0.00 0.00 0.00 0.00 0.00 0.00 0.01 0.03 0.02 0.01 0.00 0.00 0.00 0.00 0.00 0.00 0.00 0.00 0.00 0.00 0.00 0.00 0.00 0.00 0.00 0.00
0.01 0.00 0.00 0.00 0.00 0.00 0.00 0.00 0.00 0.00 0.00 0.00 0.02 0.01 0.02 0.00 0.00 0.00 0.00 0.00 0.00 0.00 0.00 0.00 0.00 0.05 0.05 0.05 0.00 0.00 0.01 0.01 0.00 0.00 0.00 0.00 0.00 0.00 0.00 0.00 0.00 0.00 0.00 0.00 0.00
0.01 0.00 0.00 0.01 0.01 0.01 0.01 0.00 0.00 0.00 0.00 0.00 0.00 0.02 0.02 0.00 0.00 0.00 0.00 0.00 0.00 0.00 0.00 0.00 0.01 0.08 0.09 0.09 0.03 0.04 0.06 0.02 0.00 0.00 0.00 0.00 0.00 0.00 0.00 0.00 0.00 0.00 0.00 0.00 0.00
0.02 0.01 0.00 0.01 0.01 0.01 0.01 0.02 0.01 0.01 0.00 0.00 0.00 0.03 0.01 0.00 0.00 0.00 0.00 0.00 0.00 0.00 0.00 0.00 0.04 0.13 0.14 0.10 0.15 0.06 0.05 0.01 0.00 0.00 0.00 0.00 0.00 0.00 0.00 0.00 0.00 0.00 0.00 0.00 0.00
0.05 0.04 0.01 0.00 0.01 0.00 0.01 0.04 0.03 0.05 0.04 0.02 0.02 0.04 0.00 0.00 0.00 0.00 0.00 0.00 0.00 0.04 0.09 0.09 0.10 0.20 0.21 0.17 0.16 0.04 0.01 0.00 0.00 0.00 0.00 0.00 0.00 0.00 0.00 0.00 0.00 0.00 0.00 0.00 0.00
0.06 0.04 0.02 0.01 0.01 0.00 0.03 0.03 0.01 0.02 0.04 0.01 0.01 0.00 0.00 0.00 0.00 0.00 0.00 0.00 0.00 0.06 0.17 0.23 0.19 0.21 0.21 0.13 0.05 0.03 0.02 0.01 0.00 0.00 0.00 0.00 0.00 0.00 0.00 0.00 0.00 0.00 0.00 0.00 0.00
0.07 0.06 0.05 0.03 0.03 0.02 0.04 0.02 0.00 0.00 0.02 0.00 0.00 0.00 0.00 0.00 0.00 0.01 0.00 0.00 0.01 0.02 0.13 0.35 0.41 0.10 0.18 0.14 0.14 0.09 0.10 0.03 0.01 0.01 0.01 0.00 0.00 0.00 0.00 0.00 0.00 0.00 0.00 0.00 0.00
0.10 0.08 0.08 0.05 0.07 0.07 0.03 0.01 0.00 0.02 0.21 0.09 0.00 0.00 0.00 0.00 0.00 0.03 0.01 0.00 0.01 0.03 0.17 0.25 0.13 0.10 0.33 0.26 0.23 0.18 0.13 0.11 0.02 0.01 0.03 0.02 0.00 0.00 0.00 0.00 0.00 0.00 0.00 0.00 0.00
0.15 0.12 0.10 0.09 0.05 0.01 0.03 0.02 0.05 0.10 0.46 0.08 0.00 0.00 0.01 0.02 0.02 0.00 0.00 0.01 0.03 0.07 0.17 0.15 0.02 0.13 0.38 0.52 0.34 0.32 0.11 0.08 0.12 0.06 0.03 0.02 0.02 0.00 0.00 0.00 0.00 0.00 0.00 0.00 0.00
0.23 0.18 0.16 0.07 0.02 0.04 0.02 0.02 0.09 0.27 0.28 0.01 0.00 0.00 0.00 0.03 0.02 0.01 0.00 0.03 0.04 0.13 0.29 0.19 0.07 0.15 0.35 0.52 0.40 0.39 0.10 0.08 0.13 0.14 0.10 0.04 0.07 0.01 0.00 0.00 0.00 0.00 0.00 0.00 0.00
0.23 0.25 0.17 0.13 0.04 0.02 0.01 0.03 0.12 0.25 0.12 0.01 0.01 0.01 0.02 0.01 0.02 0.10 0.04 0.04 0.10 0.27 0.25 0.08 0.10 0.18 0.22 0.36 0.40 0.28 0.25 0.23 0.25 0.33 0.39 0.08 0.06 0.03 0.00 0.00 0.00 0.00 0.00 0.00 0.00
0.29 0.35 0.17 0.04 0.03 0.01 0.01 0.08 0.16 0.11 0.01 0.06 0.04 0.04 0.05 0.02 0.01 0.06 0.09 0.06 0.10 0.25 0.31 0.23 0.28 0.32 0.23 0.63 0.65 0.75 0.81 0.84 0.69 0.61 0.36 0.04 0.04 0.02 0.00 0.00 0.00 0.00 0.00 0.00 0.00
0.39 0.62 0.39 0.06 0.04 0.01 0.05 0.16 0.15 0.01 0.03 0.11 0.13 0.14 0.13 0.03 0.01 0.02 0.09 0.11 0.05 0.05 0.14 0.18 0.19 0.40 0.23 0.63 0.90 0.81 0.86 0.63 0.49 0.28 0.13 0.08 0.02 0.00 0.00 0.00 0.00 0.00 0.00 0.00 0.00
0.48 1.01 0.96 0.31 0.11 0.08 0.08 0.16 0.05 0.07 0.11 0.15 0.29 0.30 0.17 0.05 0.03 0.03 0.04 0.03 0.02 0.05 0.23 0.19 0.20 0.33 0.23 0.48 0.69 0.78 0.63 0.33 0.31 0.24 0.11 0.14 0.03 0.00 0.00 0.00 0.00 0.00 0.00 0.00 0.00
0.86 1.00 0.81 0.30 0.20 0.30 0.36 0.12 0.07 0.15 0.18 0.17 0.18 0.15 0.10 0.05 0.10 0.05 0.03 0.00 0.00 0.00 0.08 0.17 0.24 0.41 0.55 0.65 0.75 0.52 0.41 0.39 0.47 0.47 0.17 0.14 0.02 0.00 0.00 0.00 0.00 0.00 0.00 0.00 0.00
0.75 1.16 0.58 0.31 0.59 0.71 0.36 0.07 0.10 0.16 0.32 0.31 0.22 0.23 0.15 0.08 0.03 0.03 0.01 0.00 0.00 0.00 0.05 0.20 0.34 0.50 0.56 0.55 0.57 0.60 0.67 0.41 0.26 0.18 0.19 0.08 0.02 0.00 0.00 0.00 0.00 0.00 0.00 0.00 0.00
0.73 0.80 0.50 0.47 0.89 0.52 0.11 0.05 0.14 0.18 0.32 0.36 0.33 0.26 0.18 0.11 0.07 0.02 0.00 0.00 0.00 0.00 0.03 0.12 0.34 0.52 0.43 0.16 0.16 0.33 0.37 0.42 0.45 0.16 0.10 0.00 0.00 0.00 0.00 0.00 0.00 0.00 0.00 0.00 0.00
0.68 0.53 0.72 0.42 0.35 0.11 0.02 0.06 0.20 0.21 0.37 0.44 0.31 0.25 0.16 0.14 0.11 0.00 0.00 0.00 0.00 0.00 0.01 0.05 0.30 0.47 0.50 0.25 0.21 0.46 0.40 0.39 0.32 0.15 0.03 0.00 0.00 0.00 0.00 0.00 0.00 0.00 0.00 0.00 0.00
0.54 0.41 0.86 0.97 0.26 0.04 0.06 0.08 0.22 0.25 0.41 0.45 0.33 0.28 0.24 0.14 0.04 0.00 0.00 0.00 0.00 0.00 0.01 0.09 0.20 0.50 0.51 0.40 0.22 0.25 0.19 0.18 0.17 0.05 0.03 0.01 0.00 0.00 0.00 0.00 0.00 0.00 0.00 0.00 0.00
0.31 0.19 0.18 0.24 0.16 0.03 0.10 0.15 0.29 0.47 0.43 0.50 0.44 0.21 0.16 0.09 0.02 0.00 0.00 0.00 0.00 0.00 0.01 0.17 0.20 0.53 0.52 0.23 0.07 0.14 0.08 0.08 0.03 0.03 0.03 0.01 0.00 0.00 0.00 0.00 0.00 0.00 0.00 0.00 0.00
0.22 0.07 0.04 0.01 0.01 0.02 0.08 0.17 0.33 0.46 0.52 0.44 0.36 0.19 0.15 0.05 0.01 0.00 0.00 0.00 0.00 0.01 0.01 0.02 0.12 0.26 0.40 0.13 0.04 0.04 0.02 0.04 0.02 0.01 0.01 0.01 0.00 0.00 0.00 0.00 0.00 0.00 0.00 0.00 0.00
0.18 0.03 0.04 0.04 0.02 0.04 0.04 0.13 0.27 0.42 0.36 0.23 0.27 0.22 0.09 0.02 0.00 0.00 0.00 0.00 0.00 0.00 0.00 0.00 0.02 0.13 0.26 0.12 0.01 0.00 0.00 0.00 0.00 0.00 0.01 0.01 0.00 0.00 0.00 0.00 0.00 0.00 0.00 0.00 0.00

GFSSW_prec_precacc12_039.txt.gz
Total_Precipitation_Accumulation
0.00 0.00 0.00 0.00 0.00 0.00 0.00 0.00 0.00 0.00 0.01 0.07 0.07 0.10 0.08 0.02 0.01 0.01 0.00 0.00 0.00 0.00 0.00 0.00 0.00 0.00 0.00 0.00 0.00 0.00 0.00 0.00 0.00 0.00 0.00 0.00 0.00 0.00 0.00 0.00 0.00 0.00 0.00 0.00 0.00
0.00 0.00 0.00 0.00 0.00 0.00 0.00 0.00 0.00 0.00 0.00 0.00 0.02 0.06 0.06 0.03 0.00 0.01 0.00 0.00 0.00 0.00 0.00 0.00 0.00 0.00 0.00 0.00 0.00 0.00 0.00 0.00 0.00 0.00 0.00 0.00 0.00 0.00 0.00 0.00 0.00 0.00 0.00 0.00 0.00
0.00 0.00 0.00 0.00 0.00 0.00 0.00 0.00 0.00 0.00 0.00 0.00 0.00 0.00 0.02 0.02 0.00 0.00 0.00 0.00 0.00 0.01 0.00 0.00 0.00 0.00 0.00 0.00 0.00 0.00 0.00 0.00 0.00 0.00 0.00 0.00 0.00 0.00 0.00 0.00 0.00 0.00 0.00 0.00 0.00
0.00 0.00 0.00 0.00 0.00 0.00 0.00 0.00 0.00 0.00 0.00 0.00 0.00 0.00 0.00 0.00 0.00 0.00 0.00 0.00 0.00 0.01 0.00 0.00 0.00 0.00 0.00 0.00 0.00 0.00 0.00 0.00 0.00 0.00 0.00 0.00 0.00 0.00 0.00 0.00 0.00 0.00 0.00 0.00 0.00
0.02 0.00 0.00 0.00 0.00 0.00 0.00 0.00 0.00 0.00 0.00 0.00 0.00 0.00 0.00 0.00 0.00 0.00 0.00 0.00 0.00 0.00 0.01 0.00 0.00 0.00 0.00 0.00 0.00 0.00 0.00 0.00 0.00 0.00 0.00 0.00 0.00 0.00 0.00 0.00 0.00 0.00 0.00 0.00 0.00
0.02 0.01 0.00 0.00 0.00 0.00 0.00 0.00 0.00 0.00 0.00 0.00 0.00 0.00 0.00 0.00 0.00 0.00 0.00 0.00 0.00 0.00 0.00 0.00 0.00 0.00 0.00 0.00 0.01 0.00 0.00 0.00 0.00 0.00 0.00 0.00 0.00 0.00 0.00 0.00 0.00 0.00 0.00 0.00 0.00
0.03 0.02 0.01 0.00 0.00 0.00 0.00 0.00 0.00 0.00 0.00 0.00 0.01 0.01 0.01 0.00 0.00 0.00 0.00 0.00 0.00 0.00 0.00 0.00 0.00 0.00 0.01 0.00 0.00 0.00 0.01 0.01 0.00 0.00 0.00 0.00 0.00 0.00 0.00 0.00 0.00 0.00 0.00 0.00 0.00
0.04 0.02 0.01 0.00 0.00 0.00 0.00 0.01 0.00 0.00 0.00 0.00 0.00 0.02 0.01 0.00 0.00 0.00 0.00 0.00 0.00 0.00 0.00 0.00 0.00 0.01 0.01 0.02 0.01 0.02 0.04 0.01 0.00 0.00 0.00 0.00 0.00 0.00 0.00 0.00 0.00 0.00 0.00 0.00 0.00
0.05 0.05 0.04 0.01 0.01 0.01 0.01 0.02 0.01 0.01 0.01 0.00 0.00 0.01 0.00 0.00 0.00 0.00 0.00 0.00 0.00 0.00 0.00 0.00 0.01 0.02 0.03 0.03 0.06 0.03 0.03 0.00 0.00 0.00 0.00 0.00 0.00 0.00 0.00 0.00 0.00 0.00 0.00 0.00 0.00
0.10 0.09 0.06 0.02 0.01 0.01 0.01 0.02 0.03 0.04 0.06 0.03 0.01 0.02 0.00 0.00 0.00 0.00 0.00 0.00 0.00 0.00 0.01 0.01 0.02 0.04 0.04 0.09 0.09 0.03 0.00 0.00 0.00 0.00 0.00 0.00 0.00 0.00 0.00 0.00 0.00 0.00 0.00 0.00 0.00
0.12 0.10 0.08 0.04 0.02 0.00 0.00 0.01 0.00 0.01 0.04 0.01 0.00 0.00 0.00 0.00 0.00 0.00 0.00 0.00 0.00 0.01 0.01 0.05 0.06 0.03 0.01 0.06 0.04 0.02 0.01 0.01 0.00 0.00 0.00 0.00 0.00 0.00 0.00 0.00 0.00 0.00 0.00 0.00 0.00
0.13 0.12 0.11 0.10 0.08 0.02 0.01 0.01 0.00 0.00 0.01 0.00 0.00 0.00 0.00 0.00 0.00 0.00 0.00 0.00 0.00 0.01 0.02 0.08 0.18 0.06 0.00 0.06 0.11 0.07 0.10 0.03 0.01 0.01 0.01 0.00 0.00 0.00 0.00 0.00 0.00 0.00 0.00 0.00 0.00
0.20 0.17 0.17 0.16 0.18 0.12 0.01 0.00 0.00 0.01 0.11 0.05 0.00 0.00 0.00 0.00 0.00 0.00 0.00 0.00 0.00 0.00 0.01 0.04 0.05 0.07 0.05 0.09 0.20 0.16 0.13 0.11 0.02 0.01 0.03 0.02 0.00 0.00 0.00 0.00 0.00 0.00 0.00 0.00 0.00
0.24 0.26 0.23 0.25 0.29 0.07 0.01 0.00 0.01 0.05 0.22 0.04 0.00 0.00 0.00 0.01 0.02 0.00 0.00 0.01 0.01 0.02 0.05 0.07 0.01 0.09 0.12 0.24 0.29 0.31 0.11 0.08 0.12 0.06 0.03 0.02 0.02 0.00 0.00 0.00 0.00 0.00 0.00 0.00 0.00
0.32 0.38 0.37 0.24 0.10 0.04 0.01 0.00 0.01 0.12 0.10 0.00 0.00 0.00 0.00 0.02 0.00 0.00 0.00 0.02 0.02 0.05 0.09 0.10 0.02 0.04 0.13 0.20 0.36 0.38 0.10 0.08 0.13 0.14 0.10 0.04 0.08 0.01 0.00 0.00 0.00 0.00 0.00 0.00 0.00
0.31 0.47 0.53 0.48 0.09 0.01 0.00 0.00 0.02 0.09 0.04 0.00 0.00 0.00 0.01 0.01 0.00 0.01 0.00 0.03 0.08 0.20 0.17 0.04 0.05 0.07 0.13 0.25 0.37 0.27 0.25 0.23 0.25 0.34 0.42 0.08 0.06 0.03 0.00 0.00 0.00 0.00 0.00 0.00 0.00
0.38 0.59 0.59 0.47 0.10 0.03 0.00 0.00 0.06 0.05 0.00 0.02 0.01 0.01 0.01 0.01 0.00 0.02 0.04 0.05 0.08 0.15 0.28 0.14 0.04 0.08 0.15 0.51 0.51 0.74 0.83 0.89 0.71 0.64 0.38 0.04 0.04 0.02 0.00 0.00 0.00 0.00 0.00 0.00 0.00
0.49 0.87 0.92 0.47 0.16 0.04 0.03 0.04 0.06 0.00 0.00 0.04 0.06 0.06 0.04 0.01 0.01 0.00 0.07 0.12 0.04 0.02 0.08 0.07 0.01 0.05 0.11 0.54 0.67 0.78 0.86 0.67 0.51 0.28 0.13 0.08 0.02 0.00 0.00 0.00 0.00 0.00 0.00 0.00 0.00
0.52 1.19 1.75 0.87 0.35 0.13 0.10 0.13 0.01 0.00 0.04 0.08 0.15 0.16 0.09 0.03 0.02 0.02 0.03 0.03 0.02 0.01 0.15 0.12 0.07 0.07 0.11 0.47 0.62 0.72 0.64 0.34 0.40 0.30 0.17 0.15 0.03 0.00 0.00 0.00 0.00 0.00 0.00 0.00 0.00
0.93 1.22 1.48 0.87 0.43 0.34 0.35 0.09 0.00 0.02 0.09 0.10 0.10 0.09 0.06 0.04 0.10 0.05 0.04 0.00 0.00 0.00 0.05 0.11 0.14 0.14 0.34 0.62 0.67 0.47 0.44 0.55 0.74 0.66 0.27 0.18 0.03 0.00 0.00 0.00 0.00 0.00 0.00 0.00 0.00
0.90 1.55 1.14 0.78 0.95 0.79 0.36 0.04 0.00 0.03 0.17 0.20 0.15 0.17 0.11 0.07 0.04 0.03 0.01 0.00 0.00 0.00 0.04 0.11 0.21 0.21 0.34 0.47 0.52 0.57 0.80 0.64 0.41 0.23 0.25 0.24 0.11 0.01 0.00 0.00 0.00 0.00 0.00 0.00 0.00
0.96 1.24 1.03 0.82 1.52 0.80 0.13 0.01 0.02 0.06 0.20 0.24 0.24 0.22 0.16 0.12 0.09 0.03 0.00 0.00 0.00 0.00 0.02 0.10 0.32 0.40 0.33 0.14 0.15 0.34 0.41 0.51 0.68 0.37 0.28 0.17 0.07 0.00 0.00 0.01 0.02 0.01 0.00 0.00 0.00
1.11 0.88 1.31 0.66 0.59 0.20 0.03 0.00 0.05 0.10 0.24 0.29 0.22 0.22 0.17 0.17 0.16 0.01 0.00 0.00 0.00 0.00 0.00 0.05 0.33 0.45 0.45 0.31 0.26 0.51 0.45 0.51 0.45 0.45 0.31 0.21 0.04 0.00 0.00 0.00 0.02 0.03 0.01 0.00 0.00
0.97 0.89 1.53 1.37 0.35 0.03 0.02 0.03 0.08 0.13 0.31 0.37 0.28 0.27 0.27 0.17 0.07 0.02 0.00 0.00 0.00 0.00 0.01 0.09 0.20 0.50 0.52 0.47 0.48 0.61 0.46 0.43 0.53 0.42 0.14 0.05 0.01 0.00 0.00 0.00 0.00 0.00 0.00 0.00 0.00
0.58 0.37 0.37 0.43 0.20 0.03 0.03 0.06 0.11 0.25 0.30 0.35 0.34 0.20 0.22 0.17 0.05 0.02 0.00 0.00 0.00 0.00 0.01 0.18 0.21 0.54 0.58 0.33 0.25 0.56 0.46 0.42 0.33 0.16 0.12 0.02 0.01 0.02 0.01 0.00 0.00 0.00 0.00 0.00 0.00
0.34 0.12 0.04 0.01 0.01 0.03 0.06 0.05 0.13 0.28 0.39 0.32 0.29 0.21 0.23 0.13 0.03 0.00 0.00 0.00 0.00 0.01 0.01 0.02 0.13 0.32 0.45 0.35 0.37 0.23 0.22 0.27 0.14 0.07 0.05 0.01 0.00 0.00 0.00 0.00 0.00 0.00 0.00 0.00 0.00
0.35 0.06 0.04 0.05 0.02 0.04 0.02 0.02 0.09 0.32 0.34 0.22 0.29 0.30 0.16 0.08 0.02 0.00 0.00 0.00 0.00 0.00 0.00 0.00 0.04 0.19 0.46 0.33 0.19 0.10 0.19 0.11 0.05 0.06 0.02 0.01 0.00 0.00 0.00 0.00 0.00 0.00 0.00 0.00 0.00